Regional Weather Roundup
Issued by NWS Sioux Falls, SD

Home | Current Version | Previous Version | Text Only | Print | Product List | Glossary Off
Versions: 1 2 3 4 5 6 7 8 9 10 11 12 13 14 15 16 17 18 19 20 21 22 23 24 25 26 27 28 29 30 31 32 33 34 35 36 37 38 39 40 41 42 43 44 45 46 47 48 49 50

000
ASUS43 KFSD 071702
RWRFSD

WEATHER ROUNDUP FOR SE SOUTH DAKOTA/SW MINNESOTA/NW IOWA
NATIONAL WEATHER SERVICE SIOUX FALLS SD
1200 PM CDT TUE JUL 07 2015

NOTE: "FAIR" INDICATES FEW OR NO CLOUDS BELOW 12,000 FEET WITH NO
SIGNIFICANT WEATHER AND OR OBSTRUCTIONS TO VISIBILITY.


SDZ038>040-050-052>070-071800-
SOUTHEAST SOUTH DAKOTA

CITY           SKY/WX    TMP DP  RH WIND       PRES   REMARKS
BROOKINGS      SUNNY     61  45  55 SE6       30.23S
CHAMBERLAIN    NOT AVBL
HURON          SUNNY     66  48  52 SE7       30.20F
MADISON        FAIR      61  46  59 E8        30.22S
MITCHELL         N/A     68  49  50 VRB3      30.21F
SIOUX FALLS    PTSUNNY   64  47  53 NE13      30.21S
WINNER         FAIR      71  56  58 SE14      30.18F
YANKTON        MOSUNNY   63  48  59 NE6       30.20S
$$

MNZ071-072-080-081-089-090-097-098-071800-
SOUTHWEST MINNESOTA

CITY           SKY/WX    TMP DP  RH WIND       PRES   REMARKS
FAIRMONT       PTSUNNY   61  43  51 N10       30.18R
JACKSON        SUNNY     63  46  55 NE13      30.20R
MARSHALL       MOSUNNY   63  45  51 NE9         N/A
MONTEVIDEO     SUNNY     66  48  52 E8        30.22
PIPESTONE      MOSUNNY   63  45  51 E6        30.21S
REDWOOD FALLS  MOSUNNY   65  45  48 NE9G17    30.19S
TRACY          MOSUNNY   64  48  55 NE9       30.21S
WINDOM         MOSUNNY   63  46  55 N10       30.19S
WORTHINGTON    MOSUNNY   61  45  55 NE13      30.20S
$$

IAZ001>003-012>014-020>022-031-032-NEZ013-014-SDZ071-071800-
NORTHWEST IOWA

CITY           SKY/WX    TMP DP  RH WIND       PRES   REMARKS
DENISON        SUNNY     64  50  59 N13       30.14F
ESTHERVILLE    MOSUNNY   61  46  57 NE10      30.18S
SIOUX CITY     SUNNY     67  47  48 N10       30.18F
SPENCER        SUNNY     65  44  46 NE10      30.19S
$$

ABBREVIATIONS USED IN REMARKS
   TC - TEMPERATURE IN CELSIUS
  WCI - WIND CHILL INDEX
   HX - HEAT INDEX
  VSB - VISIBILITY




USA.gov is the U.S. government's official web portal to all federal, state and local government web resources and services.